Location: La Ronge
(55.1000°N, 105.3000°W)
Time: 02:26:27
(UTC-06:00)

Daily predictions for brighter satellites

Satellite Brightness Start Highest point End
(mag) Time Altitude Azimuth Time Altitude Azimuth Time Altitude Azimuth
ADEOS Rocket 4.5 03:47:20 10° NNE 03:52:49 43° NE 03:52:49 43° NE
ATLAS 2AS CENTAUR R/B 3.8 04:06:19 47° NE 04:06:19 47° NE 04:12:55 10° E
USA 234 3.9 04:30:45 10° E 04:35:31 51° ENE 04:35:31 51° ENE
ADEOS II 3.7 04:46:27 10° NNE 04:49:28 31° NE 04:49:28 31° NE
Cosmos 2297 Rocket 3.1 05:04:10 44° NE 05:04:10 44° NE 05:08:05 10° NE
SeaSat 1 4.2 05:03:48 10° NE 05:07:58 26° ESE 05:09:00 25° SE
Cosmos 2227 Rocket 3.0 05:17:51 45° NNE 05:17:51 45° NNE 05:21:44 10° NNE
Cosmos 1680 Rocket 4.2 05:20:35 51° E 05:20:35 51° E 05:25:05 10° SE
Okean-O 4.2 05:20:53 10° NNE 05:23:45 33° NE 05:23:45 33° NE
ATLAS CENTAUR R/B 3.8 05:31:38 18° NNE 05:31:38 18° NNE 05:33:04 10° NE
Cosmos 2082 Rocket 4.3 05:29:27 16° N 05:30:30 17° N 05:34:08 10° NE
Okean O Rocket 4.3 05:26:17 10° N 05:26:30 11° N 05:26:30 11° N
Cosmos 1943 3.4 05:30:43 68° NE 05:30:45 68° NE 05:36:26 10° SE
Cosmos 968 Rocket 4.1 05:30:40 54° ESE 05:30:50 54° ESE 05:35:59 10° NE
CZ-4B R/B 4.0 05:27:44 10° NNE 05:31:06 40° NNE 05:31:06 40° NNE
CZ-2D R/B 4.5 05:34:29 10° N 05:34:48 11° N 05:34:48 11° N
ADEOS Rocket 3.8 05:33:00 10° N 05:39:46 49° NW 05:39:46 49° NW
Meteor 1-11 4.2 05:41:06 82° NNE 05:41:23 86° E 05:47:12 10° SSE
ATLAS CENTAUR R/B 2.9 05:44:30 48° NE 05:44:30 48° NE 05:50:04 10° E
NOSS 3-4 (A) 4.3 05:44:10 38° NNW 05:45:49 45° NNE 05:52:34 10° E
NOSS 3-4 (C) 4.3 05:44:15 38° NNW 05:45:55 45° NNE 05:52:40 10° E
NOSS 3-1 (A) 4.1 05:48:37 51° SW 05:48:37 51° SW 05:56:05 10° SSE
Cosmos 2082 4.0 05:50:10 55° NNW 05:50:10 55° NNW 05:55:03 10° NNE
Cosmos 1818 4.1 05:50:58 47° N 05:50:58 47° N 05:55:33 10° NE
Resurs 1-4 Rocket 4.4 05:47:54 10° N 05:48:20 12° N 05:48:20 12° N
Cosmos 2112 Rocket 4.0 05:55:43 71° N 05:56:18 84° ENE 06:01:41 10° SSE
Cosmos 1864 Rocket 4.5 05:57:05 60° NW 05:57:05 60° NW 06:02:45 10° N
ATLAS 2AS CENTAUR R/B 3.0 05:53:45 41° NW 05:57:04 87° NE 06:04:55 10° SE
Feng Yun 1-1 Rocket 4.3 05:51:38 10° NNE 05:57:08 75° ESE 06:01:00 21° S
Cosmos 1725 Rocket 4.0 05:59:34 59° WNW 05:59:34 59° WNW 06:05:32 10° N
COSMOS 2406 4.4 05:58:55 21° NNW 06:02:12 38° NE 06:07:35 10° ESE
Cosmos 1805 Rocket 3.6 06:07:26 77° NE 06:07:35 79° ENE 06:11:59 10° SSE
NOAA 6 4.4 06:03:02 10° NNE 06:08:14 64° ESE 06:13:23 10° S
COSMO-SKYMED 1 3.8 06:08:48 10° S 06:11:07 31° S 06:11:07 31° S
USA 234 3.2 06:13:46 10° ESE 06:20:21 84° SSW 06:22:51 42° WNW
Sich 1 3.2 06:19:00 24° N 06:21:38 73° ENE 06:25:57 10° SSE
Cosmos 1777 Rocket 4.1 06:17:42 17° SSW 06:21:43 73° ESE 06:26:56 10° NNE
Meteor 2-1 Rocket 4.4 06:20:29 10° S 06:26:10 75° E 06:32:01 10° NNE
Cosmos 1356 Rocket 3.7 06:31:15 49° SSW 06:31:15 49° SSW 06:34:30 10° S
ADEOS II 2.7 06:26:22 10° N 06:30:25 36° NW 06:30:25 36° NW
Cosmos 1633 Rocket 3.1 06:27:55 17° N 06:31:16 79° ENE 06:35:36 10° SSE
Cosmos 1626 2.6 06:34:22 47° SSW 06:34:22 47° SSW 06:37:10 10° S
Cosmos 2227 4.2 06:31:58 15° SSW 06:36:44 85° ESE 06:42:26 10° NE
Cosmos 2233 Rocket 4.2 06:37:59 21° SW 06:42:03 48° WNW 06:48:13 10° N
SeaSat 1 2.3 06:40:58 10° NNE 06:45:55 71° NW 06:48:49 25° SW
Cosmos 2297 Rocket 2.8 06:45:58 34° WNW 06:46:55 36° NW 06:52:09 10° NNE
Ariane Rocket 3.3 06:43:48 10° NNE 06:48:56 69° ESE 06:54:01 10° S
Helios 1B rocket 3.4 06:46:30 10° SE 06:50:26 46° ENE 06:54:24 10° N
Meteor 1-28 Rocket 4.0 06:49:35 10° S 06:52:08 33° SW 06:52:08 33° SW
CZ-4 R/B 2.9 06:54:03 10° NNE 06:57:54 39° E 07:01:47 10° SSE
Cosmos 2221 2.5 06:53:40 10° SSW 06:57:55 58° WNW 07:02:11 10° N
Meteor 1-29 4.3 06:56:48 10° SE 07:00:06 40° ENE 07:03:26 10° N
Nadezhda 4 Rocket 3.9 06:53:57 10° NNW 07:00:18 72° W 07:06:33 10° S
Cosmos 2227 Rocket 3.2 06:59:41 26° NW 07:00:53 28° NNW 07:05:44 10° NNE
Okean-O 3.4 06:57:37 10° N 07:01:21 31° NW 07:01:21 31° NW
Cosmos 192 4.3 06:58:29 22° NW 07:01:40 65° WSW 07:06:34 10° SSE
Cosmos 1680 Rocket 4.2 07:00:57 30° W 07:01:45 32° WSW 07:06:24 10° SSW
Cosmos 2026 Rocket 4.4 06:57:39 10° N 07:03:42 62° ENE 07:09:42 10° SSE
Meteor 2-12 Rocket 4.4 06:57:49 10° SSW 07:03:57 65° WNW 07:10:07 10° N
Cosmos 1271 Rocket 3.4 07:05:40 32° NW 07:05:40 32° NW 07:08:33 10° N
Meteor 1-31 Rocket 4.3 07:01:53 10° N 07:03:46 21° NNW 07:03:46 21° NNW
Cosmos 1666 Rocket 3.9 07:03:59 18° NNW 07:06:58 44° W 07:11:13 10° SSW
GENESIS II 4.2 07:07:28 31° NW 07:09:18 77° SW 07:13:17 10° SE
ATLAS CENTAUR R/B 3.0 07:07:55 18° NNW 07:09:48 24° N 07:13:05 10° ENE
PAYLOAD A 4.2 07:04:57 10° NNE 07:10:01 70° ESE 07:14:51 10° S
IDEFIX/ARIANE 42P 3.4 07:05:57 10° NNE 07:11:09 54° E 07:16:18 10° S
Cosmos 2034 Rocket 3.9 07:06:15 10° SSW 07:12:29 72° WNW 07:18:49 10° N
Cosmos 968 Rocket 4.1 07:10:43 25° W 07:12:55 35° NW 07:17:46 10° NNE
CZ-4B R/B 4.4 07:09:11 10° N 07:13:00 20° NW 07:13:00 20° NW
Cosmos 1943 4.0 07:12:35 24° WNW 07:14:26 30° WSW 07:19:17 10° SSW
Cosmos 1833 Rocket 4.3 07:09:59 10° NNW 07:14:45 27° NNE 07:19:30 10° E
Cosmos 2082 Rocket 3.7 07:11:33 10° NNW 07:16:32 29° NE 07:21:31 10° E
Cosmos 1933 Rocket 3.5 07:14:07 10° NNW 07:18:36 76° W 07:23:01 10° S
Cosmos 1092 Rocket 3.9 07:15:55 10° NNW 07:22:11 69° W 07:28:21 10° S
Aureole 3 4.5 07:17:57 10° NNW 07:25:02 74° W 07:30:43 10° S
CSL-04 Debris 4.2 07:20:16 10° NNE 07:25:49 87° WNW 07:31:17 10° SSW
Cosmos 1869 Rocket 4.3 07:32:20 10° N 07:36:46 55° ENE 07:41:07 10° SSE
Cosmos 1048 Rocket 4.5 07:32:10 10° NNW 07:37:33 65° ENE 07:42:51 10° SE
NOSS 3-4 (A) 3.8 07:31:35 14° NW 07:37:35 80° NE 07:44:54 10° SE
Cosmos 1937 Rocket 4.2 07:32:37 10° S 07:37:38 56° ESE 07:42:41 10° NNE
NOSS 3-4 (C) 3.8 07:31:41 14° NW 07:37:42 80° NE 07:44:59 10° SE
Cosmos 389 Rocket 2.7 07:34:43 10° SSW 07:38:19 50° WNW 07:41:55 10° N
Cosmos 1726 2.7 07:35:03 10° S 07:38:42 60° E 07:42:24 10° NNE
Cosmos 2263 Rocket 2.3 07:33:55 10° SSW 07:39:38 86° ESE 07:45:23 10° NE
Cosmos 1470 Rocket 3.8 07:35:45 10° NNW 07:39:54 45° W 07:44:02 10° SSW
Cosmos 1464 Rocket 4.4 07:34:19 10° SW 07:40:13 40° WNW 07:46:04 10° N
SL-27 R/B 3.0 07:37:01 10° NNW 07:40:25 54° ENE 07:43:44 10° SE
Cosmos 2195 Rocket 4.5 07:39:29 10° NNW 07:45:43 69° W 07:51:58 10° S
CZ-2C R/B 2.2 07:42:03 10° NNE 07:46:40 84° WNW 07:51:15 10° SSW
COSMOS 2406 3.3 07:41:10 10° NW 07:46:53 62° WSW 07:52:34 10° SSE
CSL-04 Rocket 3.7 07:41:44 10° N 07:46:56 56° WNW 07:52:05 10° SW
ATLAS 2AS CENTAUR R/B 3.7 07:41:12 13° WNW 07:47:31 36° WSW 07:54:21 10° S
Cosmos 2344 4.1 07:40:17 10° SSW 07:48:00 71° SE 07:57:23 10° NE
BREEZE-M DEB (TANK) 4.3 07:47:41 10° WSW 07:49:05 13° SW 07:50:17 10° S
Cosmos 1908 3.7 07:48:36 10° SW 07:52:11 38° WNW 07:55:50 10° N
Alouette 2 Rocket 3.4 07:49:20 10° NNW 07:52:47 47° W 07:56:30 10° S
Cosmos 2298 Rocket 4.1 07:50:11 10° SSW 07:55:30 89° WNW 08:00:51 10° NNE
Cosmos 1892 2.9 07:54:37 10° N 07:58:28 74° ENE 08:02:19 10° SSE
Cosmos 1300 2.6 08:00:03 10° SSW 08:03:53 77° WNW 08:07:45 10° N
USA 234 3.9 07:57:44 10° SSE 08:03:53 42° SW 08:10:04 10° WNW
Meteor 2-20 Rocket 4.5 07:57:45 10° NNW 08:03:55 72° W 08:10:04 10° S
APEX 2.5 08:02:33 10° SW 08:05:44 62° NW 08:08:33 10° NNE
Cosmos 1356 3.4 08:04:43 10° NNW 08:08:16 85° WSW 08:11:48 10° S
ADEOS II 3.9 08:08:33 10° NNW 08:09:39 11° NW 08:10:45 10° NW
Cosmos 2251 Rocket 4.4 08:07:27 10° NNW 08:12:35 48° NE 08:17:39 10° SE
SMAP 3.1 08:07:59 10° N 08:12:36 60° WNW 08:17:11 10° SSW
Cosmos 2228 Rocket 3.6 08:11:21 10° SW 08:15:25 35° WNW 08:19:29 10° N
Iridium 4 Rocket 3.5 08:12:45 10° NNW 08:16:47 40° W 08:21:04 10° SSW
Cosmos 1655 Rocket 4.1 08:11:12 10° NNW 08:17:18 55° W 08:23:21 10° SSW
Cosmos 1328 Rocket 4.2 08:14:28 10° SW 08:18:29 34° WNW 08:22:32 10° N
Cosmos 1151 Rocket 3.1 08:16:18 10° SSW 08:20:30 54° WNW 08:24:43 10° N
SeaSat 1 3.7 08:18:59 10° NNE 08:22:50 23° NNW 08:26:41 10° W
SPOT 3 Rocket 3.6 08:19:28 10° NNE 08:24:39 65° WNW 08:29:49 10° SSW
Helios 1B rocket 3.6 08:22:34 10° SSW 08:25:59 25° W 08:29:24 10° NW
Ariane Rocket 3.9 08:23:20 10° N 08:27:31 26° NW 08:31:43 10° WSW
Meteor 2-3 Rocket 4.0 08:24:37 10° NNW 08:30:15 51° W 08:35:49 10° S
Cosmos 1515 Rocket 4.2 08:26:58 10° SW 08:31:02 35° WNW 08:35:10 10° N
